Time,TemperatureF,DewpointF,PressureIn,WindDirection,WindDirectionDegrees,WindSpeedMPH,WindSpeedGustMPH,Humidity,HourlyPrecipIn,Conditions,Clouds,dailyrainin,SoftwareType,DateUTC
2013-04-27 00:01:00,60.0,51.0,30.14,SW,217,0.0,-999.0,73,-99.99,,,-99.99,,2013-04-27 07:01:00,
2013-04-27 00:11:00,60.0,51.0,30.14,SW,217,0.0,-999.0,73,-99.99,,,-99.99,,2013-04-27 07:11:00,
2013-04-27 00:21:00,59.0,50.0,30.14,SW,217,0.0,-999.0,73,-99.99,,,-99.99,,2013-04-27 07:21:00,
2013-04-27 00:31:00,59.0,51.0,30.14,SW,217,0.0,-999.0,74,-99.99,,,-99.99,,2013-04-27 07:31:00,
2013-04-27 00:41:00,59.0,51.0,30.14,SW,217,0.0,-999.0,74,-99.99,,,-99.99,,2013-04-27 07:41:00,
2013-04-27 00:52:00,58.0,50.0,30.14,SW,216,0.0,-999.0,74,-99.99,,,-99.99,,2013-04-27 07:52:00,
2013-04-27 01:01:00,58.0,50.0,30.14,South,175,0.0,-999.0,74,-99.99,,,-99.99,,2013-04-27 08:01:00,
2013-04-27 01:11:00,58.0,50.0,30.14,South,175,0.0,-999.0,74,-99.99,,,-99.99,,2013-04-27 08:11:00,
2013-04-27 01:21:00,57.0,49.0,30.14,South,175,0.0,-999.0,75,-99.99,,,-99.99,,2013-04-27 08:21:00,
2013-04-27 01:33:00,57.0,49.0,30.13,South,175,0.0,-999.0,75,-99.99,,,-99.99,,2013-04-27 08:33:00,
2013-04-27 01:41:00,57.0,49.0,30.13,South,175,0.0,-999.0,75,-99.99,,,-99.99,,2013-04-27 08:41:00,
2013-04-27 01:51:00,56.0,49.0,30.14,South,175,0.0,-999.0,76,-99.99,,,-99.99,,2013-04-27 08:51:00,
2013-04-27 02:01:00,56.0,49.0,30.13,South,175,0.0,-999.0,77,-99.99,,,-99.99,,2013-04-27 09:01:00,
2013-04-27 02:11:00,56.0,49.0,30.13,South,175,0.0,-999.0,77,-99.99,,,-99.99,,2013-04-27 09:11:00,
2013-04-27 02:21:00,55.0,48.0,30.13,South,175,0.0,-999.0,78,-99.99,,,-99.99,,2013-04-27 09:21:00,
2013-04-27 02:33:00,55.0,48.0,30.13,South,175,0.0,-999.0,78,-99.99,,,-99.99,,2013-04-27 09:33:00,
2013-04-27 02:42:00,55.0,48.0,30.13,South,175,0.0,-999.0,78,-99.99,,,-99.99,,2013-04-27 09:42:00,
2013-04-27 02:53:00,55.0,49.0,30.13,South,175,0.0,-999.0,79,-99.99,,,-99.99,,2013-04-27 09:53:00,
2013-04-27 03:02:00,55.0,49.0,30.13,South,175,0.0,-999.0,79,-99.99,,,-99.99,,2013-04-27 10:02:00,
2013-04-27 03:12:00,55.0,49.0,30.13,South,175,0.0,-999.0,79,-99.99,,,-99.99,,2013-04-27 10:12:00,
2013-04-27 03:22:00,54.0,48.0,30.14,South,175,0.0,-999.0,81,-99.99,,,-99.99,,2013-04-27 10:22:00,
2013-04-27 03:32:00,54.0,49.0,30.14,South,175,0.0,-999.0,82,-99.99,,,-99.99,,2013-04-27 10:32:00,
2013-04-27 03:42:00,54.0,49.0,30.14,South,175,0.0,-999.0,82,-99.99,,,-99.99,,2013-04-27 10:42:00,
2013-04-27 03:52:00,53.0,48.0,30.14,South,175,0.0,-999.0,82,-99.99,,,-99.99,,2013-04-27 10:52:00,
2013-04-27 04:02:00,53.0,48.0,30.14,South,175,0.0,-999.0,83,-99.99,,,-99.99,,2013-04-27 11:02:00,
2013-04-27 04:11:00,53.0,48.0,30.14,South,175,0.0,-999.0,84,-99.99,,,-99.99,,2013-04-27 11:11:00,
2013-04-27 04:21:00,53.0,48.0,30.14,South,175,0.0,-999.0,84,-99.99,,,-99.99,,2013-04-27 11:21:00,
2013-04-27 04:31:00,52.0,48.0,30.14,South,175,0.0,-999.0,85,-99.99,,,-99.99,,2013-04-27 11:31:00,
2013-04-27 04:41:00,52.0,48.0,30.14,South,175,0.0,-999.0,85,-99.99,,,-99.99,,2013-04-27 11:41:00,
2013-04-27 04:51:00,52.0,48.0,30.14,South,175,0.0,-999.0,85,-99.99,,,-99.99,,2013-04-27 11:51:00,
2013-04-27 05:01:00,52.0,48.0,30.14,South,175,0.0,-999.0,85,-99.99,,,-99.99,,2013-04-27 12:01:00,
2013-04-27 05:11:00,52.0,48.0,30.14,South,175,0.0,-999.0,85,-99.99,,,-99.99,,2013-04-27 12:11:00,
2013-04-27 05:21:00,52.0,48.0,30.15,South,175,0.0,-999.0,86,-99.99,,,-99.99,,2013-04-27 12:21:00,
2013-04-27 05:32:00,51.0,47.0,30.15,South,175,0.0,-999.0,86,-99.99,,,-99.99,,2013-04-27 12:32:00,
2013-04-27 05:42:00,51.0,47.0,30.15,South,175,0.0,-999.0,86,-99.99,,,-99.99,,2013-04-27 12:42:00,
2013-04-27 05:52:00,51.0,47.0,30.15,South,175,0.0,-999.0,87,-99.99,,,-99.99,,2013-04-27 12:52:00,
2013-04-27 06:01:00,51.0,47.0,30.15,South,175,0.0,-999.0,87,-99.99,,,-99.99,,2013-04-27 13:01:00,
2013-04-27 06:11:00,51.0,47.0,30.15,South,175,0.0,-999.0,87,-99.99,,,-99.99,,2013-04-27 13:11:00,
2013-04-27 06:21:00,51.0,47.0,30.15,South,175,0.0,-999.0,87,-99.99,,,-99.99,,2013-04-27 13:21:00,
2013-04-27 06:32:00,51.0,47.0,30.15,South,175,0.0,-999.0,87,-99.99,,,-99.99,,2013-04-27 13:32:00,
2013-04-27 06:42:00,51.0,47.0,30.15,South,175,0.0,-999.0,87,-99.99,,,-99.99,,2013-04-27 13:42:00,
2013-04-27 06:52:00,51.0,48.0,30.16,South,175,0.0,-999.0,88,-99.99,,,-99.99,,2013-04-27 13:52:00,
2013-04-27 07:02:00,51.0,48.0,30.16,South,175,0.0,-999.0,89,-99.99,,,-99.99,,2013-04-27 14:02:00,
2013-04-27 07:11:00,51.0,48.0,30.16,South,175,0.0,-999.0,89,-99.99,,,-99.99,,2013-04-27 14:11:00,
2013-04-27 07:21:00,51.0,48.0,30.17,South,175,0.0,-999.0,89,-99.99,,,-99.99,,2013-04-27 14:21:00,
2013-04-27 07:31:00,51.0,48.0,30.18,South,175,0.0,-999.0,89,-99.99,,,-99.99,,2013-04-27 14:31:00,
2013-04-27 07:41:00,51.0,48.0,30.18,South,175,0.0,-999.0,89,-99.99,,,-99.99,,2013-04-27 14:41:00,
2013-04-27 07:52:00,52.0,49.0,30.18,South,175,0.0,-999.0,88,-99.99,,,-99.99,,2013-04-27 14:52:00,
2013-04-27 08:01:00,53.0,49.0,30.18,South,175,0.0,-999.0,86,-99.99,,,-99.99,,2013-04-27 15:01:00,
2013-04-27 08:11:00,53.0,49.0,30.18,South,175,0.0,-999.0,86,-99.99,,,-99.99,,2013-04-27 15:11:00,
2013-04-27 08:21:00,54.0,49.0,30.18,South,175,0.0,-999.0,84,-99.99,,,-99.99,,2013-04-27 15:21:00,
2013-04-27 08:33:00,55.0,49.0,30.19,South,175,0.0,-999.0,81,-99.99,,,-99.99,,2013-04-27 15:33:00,
2013-04-27 08:42:00,55.0,49.0,30.19,South,175,0.0,-999.0,81,-99.99,,,-99.99,,2013-04-27 15:42:00,
2013-04-27 08:52:00,56.0,50.0,30.19,South,172,0.0,-999.0,79,-99.99,,,-99.99,,2013-04-27 15:52:00,
2013-04-27 09:02:00,57.0,50.0,30.19,South,172,0.0,-999.0,77,-99.99,,,-99.99,,2013-04-27 16:02:00,
2013-04-27 09:13:00,57.0,50.0,30.19,South,172,0.0,-999.0,77,-99.99,,,-99.99,,2013-04-27 16:13:00,
2013-04-27 09:22:00,58.0,50.0,30.19,South,172,0.0,-999.0,75,-99.99,,,-99.99,,2013-04-27 16:22:00,
2013-04-27 09:32:00,60.0,51.0,30.19,South,172,0.0,-999.0,72,-99.99,,,-99.99,,2013-04-27 16:32:00,
2013-04-27 09:42:00,60.0,51.0,30.19,South,172,0.0,-999.0,72,-99.99,,,-99.99,,2013-04-27 16:42:00,
2013-04-27 09:52:00,61.0,51.0,30.19,South,169,1.0,-999.0,70,-99.99,,,-99.99,,2013-04-27 16:52:00,
2013-04-27 10:02:00,62.0,52.0,30.19,SSE,167,0.0,-999.0,70,-99.99,,,-99.99,,2013-04-27 17:02:00,
2013-04-27 10:11:00,62.0,52.0,30.19,SSE,167,0.0,-999.0,70,-99.99,,,-99.99,,2013-04-27 17:11:00,
2013-04-27 10:22:00,63.0,52.0,30.19,SSE,167,0.0,-999.0,67,-99.99,,,-99.99,,2013-04-27 17:22:00,
2013-04-27 10:31:00,65.0,53.0,30.19,SSE,167,0.0,-999.0,66,-99.99,,,-99.99,,2013-04-27 17:31:00,
2013-04-27 10:42:00,65.0,53.0,30.19,SSE,167,0.0,-999.0,66,-99.99,,,-99.99,,2013-04-27 17:42:00,
2013-04-27 10:52:00,66.0,52.0,30.19,SSE,167,0.0,-999.0,61,-99.99,,,-99.99,,2013-04-27 17:52:00,
2013-04-27 11:02:00,68.0,53.0,30.19,SSE,147,1.0,-999.0,59,-99.99,,,-99.99,,2013-04-27 18:02:00,
2013-04-27 11:11:00,68.0,53.0,30.19,SSE,147,1.0,-999.0,59,-99.99,,,-99.99,,2013-04-27 18:11:00,
2013-04-27 11:21:00,69.0,54.0,30.19,SSE,147,1.0,-999.0,58,-99.99,,,-99.99,,2013-04-27 18:21:00,
2013-04-27 11:32:00,70.0,54.0,30.18,SE,146,1.0,-999.0,57,-99.99,,,-99.99,,2013-04-27 18:32:00,
2013-04-27 11:41:00,70.0,54.0,30.18,SE,146,1.0,-999.0,57,-99.99,,,-99.99,,2013-04-27 18:41:00,
2013-04-27 11:51:00,71.0,54.0,30.18,NW,316,2.0,-999.0,54,-99.99,,,-99.99,,2013-04-27 18:51:00,
2013-04-27 12:01:00,73.0,55.0,30.18,WNW,301,0.0,-999.0,53,-99.99,,,-99.99,,2013-04-27 19:01:00,
2013-04-27 12:11:00,73.0,55.0,30.18,WNW,301,0.0,-999.0,53,-99.99,,,-99.99,,2013-04-27 19:11:00,
2013-04-27 12:21:00,73.0,53.0,30.17,NW,323,2.0,-999.0,50,-99.99,,,-99.99,,2013-04-27 19:21:00,
2013-04-27 12:32:00,75.0,55.0,30.16,NNW,333,0.0,-999.0,49,-99.99,,,-99.99,,2013-04-27 19:32:00,
2013-04-27 12:42:00,75.0,55.0,30.16,NNW,333,0.0,-999.0,49,-99.99,,,-99.99,,2013-04-27 19:42:00,
2013-04-27 12:52:00,76.0,54.0,30.16,NNW,333,0.0,-999.0,47,-99.99,,,-99.99,,2013-04-27 19:52:00,
2013-04-27 13:02:00,77.0,55.0,30.15,NNW,338,0.0,-999.0,47,-99.99,,,-99.99,,2013-04-27 20:02:00,
2013-04-27 13:11:00,77.0,55.0,30.15,NNW,338,0.0,-999.0,47,-99.99,,,-99.99,,2013-04-27 20:11:00,
2013-04-27 13:21:00,78.0,56.0,30.14,NNW,338,0.0,-999.0,46,-99.99,,,-99.99,,2013-04-27 20:21:00,
2013-04-27 13:31:00,80.0,56.0,30.13,NNW,338,1.0,-999.0,44,-99.99,,,-99.99,,2013-04-27 20:31:00,
2013-04-27 13:42:00,80.0,56.0,30.13,NNW,338,1.0,-999.0,44,-99.99,,,-99.99,,2013-04-27 20:42:00,
2013-04-27 13:52:00,80.0,56.0,30.12,NNW,338,0.0,-999.0,44,-99.99,,,-99.99,,2013-04-27 20:52:00,
2013-04-27 14:02:00,81.0,55.0,30.12,WNW,288,1.0,-999.0,41,-99.99,,,-99.99,,2013-04-27 21:02:00,
2013-04-27 14:11:00,81.0,55.0,30.12,WNW,288,1.0,-999.0,41,-99.99,,,-99.99,,2013-04-27 21:11:00,
2013-04-27 14:21:00,82.0,56.0,30.11,North,350,1.0,-999.0,41,-99.99,,,-99.99,,2013-04-27 21:21:00,
2013-04-27 14:32:00,82.0,55.0,30.10,NW,311,1.0,-999.0,40,-99.99,,,-99.99,,2013-04-27 21:32:00,
2013-04-27 14:42:00,82.0,55.0,30.10,NW,311,1.0,-999.0,40,-99.99,,,-99.99,,2013-04-27 21:42:00,
2013-04-27 14:53:00,83.0,55.0,30.09,WNW,295,1.0,-999.0,39,-99.99,,,-99.99,,2013-04-27 21:53:00,
2013-04-27 15:02:00,84.0,55.0,30.09,NNW,346,1.0,-999.0,37,-99.99,,,-99.99,,2013-04-27 22:02:00,
2013-04-27 15:12:00,84.0,55.0,30.09,NNW,346,1.0,-999.0,37,-99.99,,,-99.99,,2013-04-27 22:12:00,
2013-04-27 15:22:00,85.0,54.0,30.08,WNW,297,3.0,-999.0,35,-99.99,,,-99.99,,2013-04-27 22:22:00,
2013-04-27 15:32:00,85.0,56.0,30.07,West,271,1.0,-999.0,37,-99.99,,,-99.99,,2013-04-27 22:32:00,
2013-04-27 15:42:00,85.0,56.0,30.07,West,271,1.0,-999.0,37,-99.99,,,-99.99,,2013-04-27 22:42:00,
2013-04-27 15:52:00,85.0,56.0,30.07,WNW,300,1.0,-999.0,37,-99.99,,,-99.99,,2013-04-27 22:52:00,
2013-04-27 16:02:00,86.0,55.0,30.06,NW,309,2.0,-999.0,35,-99.99,,,-99.99,,2013-04-27 23:02:00,
2013-04-27 16:11:00,86.0,55.0,30.06,NW,309,2.0,-999.0,35,-99.99,,,-99.99,,2013-04-27 23:11:00,
2013-04-27 16:22:00,86.0,55.0,30.05,NW,306,1.0,-999.0,35,-99.99,,,-99.99,,2013-04-27 23:22:00,
2013-04-27 16:32:00,87.0,54.0,30.05,WNW,302,1.0,-999.0,33,-99.99,,,-99.99,,2013-04-27 23:32:00,
2013-04-27 16:42:00,87.0,54.0,30.05,WNW,302,1.0,-999.0,33,-99.99,,,-99.99,,2013-04-27 23:42:00,
2013-04-27 16:52:00,87.0,54.0,30.04,WNW,286,3.0,-999.0,33,-99.99,,,-99.99,,2013-04-27 23:52:00,
2013-04-27 17:01:00,87.0,54.0,30.03,NW,304,2.0,-999.0,32,-99.99,,,-99.99,,2013-04-28 00:01:00,
2013-04-27 17:11:00,87.0,54.0,30.03,NW,304,2.0,-999.0,32,-99.99,,,-99.99,,2013-04-28 00:11:00,
2013-04-27 17:21:00,87.0,54.0,30.03,NW,314,1.0,-999.0,32,-99.99,,,-99.99,,2013-04-28 00:21:00,
2013-04-27 17:31:00,88.0,56.0,30.03,WNW,302,1.0,-999.0,34,-99.99,,,-99.99,,2013-04-28 00:31:00,
2013-04-27 17:42:00,88.0,56.0,30.03,WNW,302,1.0,-999.0,34,-99.99,,,-99.99,,2013-04-28 00:42:00,
2013-04-27 17:51:00,88.0,54.0,30.02,WNW,302,0.0,-999.0,31,-99.99,,,-99.99,,2013-04-28 00:51:00,
2013-04-27 18:01:00,88.0,54.0,30.02,NW,315,1.0,-999.0,31,-99.99,,,-99.99,,2013-04-28 01:01:00,
2013-04-27 18:11:00,88.0,54.0,30.02,NW,315,1.0,-999.0,31,-99.99,,,-99.99,,2013-04-28 01:11:00,
2013-04-27 18:21:00,88.0,55.0,30.02,NW,306,1.0,-999.0,33,-99.99,,,-99.99,,2013-04-28 01:21:00,
2013-04-27 18:31:00,87.0,55.0,30.01,NW,306,0.0,-999.0,34,-99.99,,,-99.99,,2013-04-28 01:31:00,
2013-04-27 18:41:00,87.0,55.0,30.01,NW,306,0.0,-999.0,34,-99.99,,,-99.99,,2013-04-28 01:41:00,
2013-04-27 18:52:00,87.0,56.0,30.01,NW,306,0.0,-999.0,35,-99.99,,,-99.99,,2013-04-28 01:52:00,
2013-04-27 19:01:00,86.0,56.0,30.01,NW,306,0.0,-999.0,36,-99.99,,,-99.99,,2013-04-28 02:01:00,
2013-04-27 19:11:00,86.0,56.0,30.01,NW,306,0.0,-999.0,36,-99.99,,,-99.99,,2013-04-28 02:11:00,
2013-04-27 19:21:00,84.0,56.0,30.01,WNW,289,0.0,-999.0,39,-99.99,,,-99.99,,2013-04-28 02:21:00,
2013-04-27 19:31:00,83.0,56.0,30.00,WNW,289,0.0,-999.0,40,-99.99,,,-99.99,,2013-04-28 02:31:00,
2013-04-27 19:42:00,83.0,56.0,30.00,WNW,289,0.0,-999.0,40,-99.99,,,-99.99,,2013-04-28 02:42:00,
2013-04-27 19:52:00,83.0,57.0,30.00,WNW,289,0.0,-999.0,41,-99.99,,,-99.99,,2013-04-28 02:52:00,
2013-04-27 20:01:00,81.0,55.0,30.00,WNW,289,0.0,-999.0,41,-99.99,,,-99.99,,2013-04-28 03:01:00,
2013-04-27 20:11:00,81.0,55.0,30.00,WNW,289,0.0,-999.0,41,-99.99,,,-99.99,,2013-04-28 03:11:00,
2013-04-27 20:21:00,80.0,55.0,29.99,WNW,289,0.0,-999.0,43,-99.99,,,-99.99,,2013-04-28 03:21:00,
2013-04-27 20:32:00,79.0,56.0,29.99,WNW,289,0.0,-999.0,45,-99.99,,,-99.99,,2013-04-28 03:32:00,
2013-04-27 20:42:00,79.0,56.0,29.99,WNW,289,0.0,-999.0,45,-99.99,,,-99.99,,2013-04-28 03:42:00,
2013-04-27 20:53:00,77.0,56.0,29.99,WNW,289,0.0,-999.0,49,-99.99,,,-99.99,,2013-04-28 03:53:00,
2013-04-27 21:02:00,75.0,56.0,30.00,WNW,289,0.0,-999.0,52,-99.99,,,-99.99,,2013-04-28 04:02:00,
2013-04-27 21:13:00,75.0,56.0,30.00,WNW,289,0.0,-999.0,52,-99.99,,,-99.99,,2013-04-28 04:13:00,
2013-04-27 21:22:00,74.0,55.0,30.00,WNW,289,0.0,-999.0,52,-99.99,,,-99.99,,2013-04-28 04:22:00,
2013-04-27 21:32:00,73.0,54.0,30.01,WNW,288,0.0,-999.0,51,-99.99,,,-99.99,,2013-04-28 04:32:00,
2013-04-27 21:42:00,73.0,54.0,30.01,WNW,288,0.0,-999.0,51,-99.99,,,-99.99,,2013-04-28 04:42:00,
2013-04-27 21:52:00,71.0,52.0,30.01,WNW,288,0.0,-999.0,52,-99.99,,,-99.99,,2013-04-28 04:52:00,
2013-04-27 22:02:00,70.0,53.0,30.01,WNW,288,0.0,-999.0,55,-99.99,,,-99.99,,2013-04-28 05:02:00,
2013-04-27 22:12:00,70.0,53.0,30.01,WNW,288,0.0,-999.0,55,-99.99,,,-99.99,,2013-04-28 05:12:00,
2013-04-27 22:22:00,69.0,52.0,30.01,WNW,288,0.0,-999.0,55,-99.99,,,-99.99,,2013-04-28 05:22:00,
2013-04-27 22:32:00,69.0,53.0,30.01,WNW,288,0.0,-999.0,56,-99.99,,,-99.99,,2013-04-28 05:32:00,
2013-04-27 22:42:00,69.0,53.0,30.01,WNW,288,0.0,-999.0,56,-99.99,,,-99.99,,2013-04-28 05:42:00,
2013-04-27 22:52:00,68.0,53.0,30.01,WNW,288,0.0,-999.0,58,-99.99,,,-99.99,,2013-04-28 05:52:00,
2013-04-27 23:01:00,67.0,53.0,30.01,WNW,288,0.0,-999.0,60,-99.99,,,-99.99,,2013-04-28 06:01:00,
2013-04-27 23:12:00,67.0,53.0,30.01,WNW,288,0.0,-999.0,60,-99.99,,,-99.99,,2013-04-28 06:12:00,
2013-04-27 23:21:00,67.0,54.0,30.01,WNW,288,0.0,-999.0,62,-99.99,,,-99.99,,2013-04-28 06:21:00,
2013-04-27 23:32:00,66.0,53.0,30.01,WNW,288,0.0,-999.0,64,-99.99,,,-99.99,,2013-04-28 06:32:00,
2013-04-27 23:42:00,66.0,53.0,30.01,WNW,288,0.0,-999.0,64,-99.99,,,-99.99,,2013-04-28 06:42:00,
2013-04-27 23:51:00,65.0,53.0,30.01,WNW,288,0.0,-999.0,65,-99.99,,,-99.99,,2013-04-28 06:51:00,